Location: Huberhof
(49.2050°N, 7.4980°E)
Time: 03:41:03
(UTC+00:00)

Cosmos 1328 - Pass Details

Date: 29 October 2020
Orbit: 533 x 550 km, 82.5° (Epoch: 25 November)

Event Time Altitude Azimuth Distance (km) Brightness Sun altitude
Rises 16:40:37 0° 347° (NNW) 2,695 7.3 -5.1°
Reaches altitude 10° 16:42:47 10° 344° (NNW) 1,800 6.5 -5.4°
Maximum altitude 16:46:41 62° 264° (W) 608 4.4 -6.1°
Drops below altitude 10° 16:50:34 10° 183° (S) 1,789 6.7 -6.7°
Sets 16:52:43 0° 180° (S) 2,678 7.5 -7.0°
